Volver al catálogo

OPS 4682 DEB

ActivoPO
NORAD 38442·DEBRIS·🇺🇸 United States

Lanzado Apr 3, 1965 desde Vandenberg Space Force Base

Loading…

Próximos Pases (próximas 24 horas)

TLE

EnvejeciendoSource: Space-Track

Época: Sep 9, 2026, 14:40 UTC

1 38442U 65027EX  26252.61158745 -.00000623  00000-0 -22801-2 0  9993
2 38442  90.2485   7.6791 0029665  20.3710 339.8584 12.93937841598494

Sigue OPS 4682 DEB en tiempo real con AllMySat

Download on the App Store